| time (UTC) | temp F | wind direction | speed MPH | gust MPH | rain 1hr in | rain 24hr in | rain mn in | humidity % | barometer mb |
| 20260506212024 | 86 | 159 | 3.0 | 6.0 | 0.00 | 0.00 | 0.00 | 78 | 1008.7 |
| 20260506211521 | 85 | 161 | 5.0 | 7.0 | 0.00 | 0.00 | 0.00 | 79 | 1008.5 |
| 20260506211018 | 85 | 161 | 5.0 | 7.0 | 0.00 | 0.00 | 0.00 | 79 | 1008.6 |
| 20260506210514 | 85 | 146 | 3.0 | 3.0 | 0.00 | 0.00 | 0.00 | 79 | 1008.5 |
| 20260506210011 | 85 | 147 | 5.0 | 6.0 | 0.00 | 0.00 | 0.00 | 78 | 1008.6 |
| 20260506205508 | 85 | 183 | 3.0 | 7.0 | 0.00 | 0.00 | 0.00 | 78 | 1008.6 |
| 20260506205003 | 86 | 169 | 5.0 | 9.0 | 0.00 | 0.00 | 0.00 | 77 | 1008.5 |
| 20260506204502 | 86 | 165 | 4.0 | 9.0 | 0.00 | 0.00 | 0.00 | 77 | 1008.8 |
| 20260506203958 | 86 | 187 | 5.0 | 7.0 | 0.00 | 0.00 | 0.00 | 78 | 1008.5 |
| 20260506203456 | 86 | 173 | 5.0 | 7.0 | 0.00 | 0.00 | 0.00 | 78 | 1008.7 |
| 20260506202953 | 86 | 167 | 6.0 | 9.0 | 0.00 | 0.00 | 0.00 | 77 | 1008.8 |
| 20260506202450 | 86 | 161 | 6.0 | 7.0 | 0.00 | 0.00 | 0.00 | 79 | 1008.7 |
| 20260506201946 | 86 | 147 | 5.0 | 7.0 | 0.00 | 0.00 | 0.00 | 79 | 1008.9 |
| 20260506201444 | 86 | 167 | 6.0 | 10.0 | 0.00 | 0.00 | 0.00 | 79 | 1008.9 |
| 20260506200940 | 84 | 156 | 5.0 | 6.0 | 0.00 | 0.00 | 0.00 | 80 | 1008.9 |
| 20260506200437 | 85 | 156 | 6.0 | 8.0 | 0.00 | 0.00 | 0.00 | 80 | 1009.0 |
| 20260506195933 | 85 | 171 | 3.0 | 4.0 | 0.00 | 0.00 | 0.00 | 80 | 1009.1 |
| 20260506195430 | 85 | 183 | 6.0 | 9.0 | 0.00 | 0.00 | 0.00 | 80 | 1009.2 |
| 20260506194927 | 84 | 176 | 4.0 | 8.0 | 0.00 | 0.00 | 0.00 | 83 | 1009.2 |
| 20260506194424 | 83 | 149 | 8.0 | 10.0 | 0.00 | 0.00 | 0.00 | 83 | 1009.2 |
| 20260506193921 | 84 | 152 | 7.0 | 9.0 | 0.00 | 0.00 | 0.00 | 82 | 1009.4 |
| 20260506193418 | 84 | 186 | 7.0 | 10.0 | 0.00 | 0.00 | 0.00 | 81 | 1009.2 |
| 20260506192914 | 84 | 181 | 7.0 | 8.0 | 0.00 | 0.00 | 0.00 | 82 | 1009.3 |
| 20260506192411 | 84 | 155 | 6.0 | 8.0 | 0.00 | 0.00 | 0.00 | 83 | 1009.4 |
| 20260506191908 | 84 | 158 | 5.0 | 8.0 | 0.00 | 0.00 | 0.00 | 83 | 1009.6 |
| 20260506191404 | 84 | 148 | 4.0 | 7.0 | 0.00 | 0.00 | 0.00 | 83 | 1009.6 |
| 20260506190902 | 83 | 159 | 8.0 | 9.0 | 0.00 | 0.00 | 0.00 | 84 | 1009.7 |
| 20260506190358 | 83 | 156 | 5.0 | 7.0 | 0.00 | 0.00 | 0.00 | 85 | 1009.7 |
| 20260506185855 | 82 | 171 | 3.0 | 6.0 | 0.00 | 0.00 | 0.00 | 86 | 1009.9 |
| 20260506185352 | 82 | 147 | 5.0 | 7.0 | 0.00 | 0.00 | 0.00 | 88 | 1009.9 |
| 20260506184849 | 81 | 160 | 1.0 | 6.0 | 0.00 | 0.00 | 0.00 | 89 | 1010.2 |
| 20260506184346 | 81 | 132 | 3.0 | 4.0 | 0.00 | 0.00 | 0.00 | 89 | 1010.2 |
| 20260506183843 | 81 | 142 | 3.0 | 4.0 | 0.00 | 0.00 | 0.00 | 88 | 1010.3 |
| 20260506183338 | 82 | 114 | 5.0 | 6.0 | 0.00 | 0.00 | 0.00 | 85 | 1010.2 |
| 20260506182836 | 82 | 165 | 5.0 | 7.0 | 0.00 | 0.00 | 0.00 | 85 | 1010.3 |
| 20260506182333 | 82 | 158 | 5.0 | 6.0 | 0.00 | 0.00 | 0.00 | 85 | 1010.2 |
| 20260506181831 | 82 | 165 | 3.0 | 3.0 | 0.00 | 0.00 | 0.00 | 84 | 1010.4 |
| 20260506181328 | 82 | 167 | 4.0 | 4.0 | 0.00 | 0.00 | 0.00 | 83 | 1010.2 |
| 20260506180825 | 82 | 167 | 4.0 | 4.0 | 0.00 | 0.00 | 0.00 | 83 | 1010.3 |
| 20260506180321 | 82 | 140 | 4.0 | 6.0 | 0.00 | 0.00 | 0.00 | 84 | 1010.4 |
| 20260506175817 | 82 | 140 | 4.0 | 6.0 | 0.00 | 0.00 | 0.00 | 84 | 1010.6 |
| 20260506175315 | 82 | 175 | 2.0 | 3.0 | 0.00 | 0.00 | 0.00 | 84 | 1010.7 |
| 20260506174812 | 82 | 158 | 3.0 | 3.0 | 0.00 | 0.00 | 0.00 | 83 | 1010.9 |
| 20260506174309 | 83 | 177 | 5.0 | 6.0 | 0.00 | 0.00 | 0.00 | 84 | 1010.5 |
| 20260506173806 | 83 | 177 | 5.0 | 6.0 | 0.00 | 0.00 | 0.00 | 84 | 1010.7 |
| 20260506173303 | 82 | 125 | 3.0 | 3.0 | 0.00 | 0.00 | 0.00 | 86 | 1010.8 |
| 20260506172800 | 82 | 125 | 3.0 | 3.0 | 0.00 | 0.00 | 0.00 | 86 | 1010.8 |
| 20260506172256 | 82 | 125 | 3.0 | 3.0 | 0.00 | 0.00 | 0.00 | 86 | 1010.8 |
| 20260506171754 | 82 | 125 | 3.0 | 3.0 | 0.00 | 0.00 | 0.00 | 86 | 1010.9 |
| 20260506171251 | 81 | 173 | 1.0 | 2.0 | 0.00 | 0.00 | 0.00 | 87 | 1011.0 |
| 20260506170749 | 81 | 144 | 5.0 | 6.0 | 0.00 | 0.00 | 0.00 | 87 | 1010.8 |
| 20260506170245 | 81 | 167 | 3.0 | 6.0 | 0.00 | 0.00 | 0.00 | 88 | 1010.7 |
| 20260506165744 | 81 | 178 | 3.0 | 6.0 | 0.00 | 0.00 | 0.00 | 88 | 1010.9 |
| 20260506165240 | 80 | 173 | 2.0 | 2.0 | 0.00 | 0.00 | 0.00 | 89 | 1011.0 |
| 20260506164738 | 80 | 168 | 3.0 | 6.0 | 0.00 | 0.00 | 0.00 | 89 | 1010.9 |
| 20260506164234 | 80 | 134 | 4.0 | 7.0 | 0.00 | 0.00 | 0.00 | 89 | 1010.8 |
| 20260506163731 | 80 | 114 | 6.0 | 7.0 | 0.00 | 0.00 | 0.00 | 91 | 1010.6 |
| 20260506163226 | 80 | 114 | 6.0 | 7.0 | 0.00 | 0.00 | 0.00 | 91 | 1010.7 |
| 20260506162722 | 80 | 163 | 4.0 | 4.0 | 0.00 | 0.00 | 0.00 | 92 | 1010.7 |
| 20260506162220 | 80 | 136 | 5.0 | 8.0 | 0.00 | 0.00 | 0.00 | 91 | 1010.5 |
| 20260506161717 | 80 | 65 | 6.0 | 8.0 | 0.00 | 0.00 | 0.00 | 92 | 1010.5 |
| 20260506161214 | 78 | 86 | 2.0 | 2.0 | 0.00 | 0.00 | 0.00 | 95 | 1010.8 |
| 20260506160712 | 78 | 86 | 2.0 | 2.0 | 0.00 | 0.00 | 0.00 | 95 | 1010.6 |
| 20260506160208 | 78 | 86 | 2.0 | 2.0 | 0.00 | 0.00 | 0.00 | 95 | 1010.6 |
| 20260506155707 | 78 | 86 | 2.0 | 2.0 | 0.00 | 0.00 | 0.00 | 95 | 1010.6 |
| 20260506155204 | 77 | 160 | 2.0 | 2.0 | 0.00 | 0.00 | 0.00 | 96 | 1010.5 |
| 20260506153305 | 77 | 160 | 2.0 | 2.0 | 0.00 | 0.00 | 0.00 | 96 | 1010.3 |
| 20260506152802 | 77 | 160 | 2.0 | 2.0 | 0.00 | 0.00 | 0.00 | 96 | 1010.6 |
| 20260506152300 | 77 | 160 | 2.0 | 2.0 | 0.00 | 0.00 | 0.00 | 96 | 1010.3 |
| 20260506151758 | 77 | 160 | 2.0 | 2.0 | 0.00 | 0.00 | 0.00 | 96 | 1010.3 |
| 20260506151255 | 77 | 160 | 2.0 | 2.0 | 0.00 | 0.00 | 0.00 | 96 | 1010.4 |
| 20260506150751 | 77 | 163 | 5.0 | 6.0 | 0.00 | 0.00 | 0.00 | 96 | 1010.2 |
| 20260506150249 | 77 | 163 | 5.0 | 6.0 | 0.00 | 0.00 | 0.00 | 96 | 1010.1 |
| 20260506145745 | 77 | 163 | 5.0 | 6.0 | 0.00 | 0.00 | 0.00 | 96 | 1010.1 |
| 20260506145241 | 77 | 163 | 5.0 | 6.0 | 0.00 | 0.00 | 0.00 | 96 | 1009.7 |
| 20260506144739 | 77 | 163 | 5.0 | 6.0 | 0.00 | 0.00 | 0.00 | 96 | 1009.7 |
| 20260506144236 | 77 | 163 | 5.0 | 6.0 | 0.00 | 0.00 | 0.00 | 96 | 1009.8 |
| 20260506143734 | 77 | 132 | 1.0 | 4.0 | 0.00 | 0.00 | 0.00 | 96 | 1009.4 |
| 20260506143231 | 77 | 82 | 0.0 | 4.0 | 0.00 | 0.00 | 0.00 | 96 | 1009.5 |
| 20260506142730 | 76 | 86 | 2.0 | 3.0 | 0.00 | 0.00 | 0.00 | 96 | 1009.7 |
| 20260506142227 | 76 | 86 | 2.0 | 3.0 | 0.00 | 0.00 | 0.00 | 96 | 1009.6 |
| 20260506141725 | 76 | 86 | 2.0 | 3.0 | 0.00 | 0.00 | 0.00 | 96 | 1009.8 |
| 20260506141223 | 76 | 119 | 2.0 | 2.0 | 0.00 | 0.00 | 0.00 | 96 | 1009.9 |
| 20260506140720 | 76 | 119 | 1.0 | 2.0 | 0.00 | 0.00 | 0.00 | 96 | 1009.9 |
| 20260506140217 | 76 | 130 | 0.0 | 2.0 | 0.00 | 0.00 | 0.00 | 96 | 1009.8 |
| 20260506135714 | 76 | 152 | 1.0 | 3.0 | 0.00 | 0.00 | 0.00 | 96 | 1009.7 |
| 20260506135210 | 76 | 81 | 3.0 | 3.0 | 0.00 | 0.00 | 0.00 | 96 | 1009.7 |
| 20260506134707 | 76 | 132 | 0.0 | 2.0 | 0.00 | 0.00 | 0.00 | 96 | 1009.9 |
| 20260506134203 | 76 | 129 | 0.0 | 0.0 | 0.00 | 0.00 | 0.00 | 96 | 1009.9 |
| 20260506133701 | 76 | 154 | 0.0 | 0.0 | 0.00 | 0.00 | 0.00 | 96 | 1009.7 |
| 20260506133157 | 76 | 143 | 0.0 | 0.0 | 0.00 | 0.00 | 0.00 | 96 | 1009.6 |
| 20260506132655 | 76 | 154 | 0.0 | 0.0 | 0.00 | 0.00 | 0.00 | 96 | 1009.6 |
| 20260506132151 | 76 | 61 | 1.0 | 2.0 | 0.00 | 0.00 | 0.00 | 96 | 1009.7 |
| 20260506131649 | 76 | 117 | 1.0 | 2.0 | 0.00 | 0.00 | 0.00 | 96 | 1009.9 |
| 20260506131145 | 76 | 149 | 0.0 | 1.0 | 0.00 | 0.00 | 0.00 | 96 | 1009.8 |
| 20260506130642 | 76 | 155 | 0.0 | 1.0 | 0.00 | 0.00 | 0.00 | 96 | 1009.9 |
| 20260506130139 | 75 | 172 | 1.0 | 2.0 | 0.00 | 0.00 | 0.00 | 96 | 1009.7 |
| 20260506125637 | 75 | 135 | 0.0 | 0.0 | 0.00 | 0.00 | 0.00 | 96 | 1009.9 |
| 20260506125134 | 75 | 156 | 0.0 | 0.0 | 0.00 | 0.00 | 0.00 | 96 | 1009.8 |
| 20260506124633 | 75 | 163 | 0.0 | 0.0 | 0.00 | 0.00 | 0.00 | 96 | 1009.6 |
| 20260506124130 | 75 | 162 | 0.0 | 0.0 | 0.00 | 0.00 | 0.00 | 96 | 1009.8 |
| 20260506123627 | 74 | 149 | 1.0 | 1.0 | 0.00 | 0.00 | 0.00 | 96 | 1009.8 |
| 20260506123126 | 74 | 149 | 0.0 | 1.0 | 0.00 | 0.00 | 0.00 | 96 | 1009.6 |
| 20260506122622 | 74 | 165 | 0.0 | 0.0 | 0.00 | 0.00 | 0.00 | 96 | 1009.8 |
| 20260506122120 | 74 | 170 | 0.0 | 0.0 | 0.00 | 0.00 | 0.00 | 96 | 1009.6 |
| 20260506121618 | 74 | 170 | 0.0 | 0.0 | 0.00 | 0.00 | 0.00 | 96 | 1009.7 |
| 20260506121114 | 74 | 171 | 0.0 | 0.0 | 0.00 | 0.00 | 0.00 | 96 | 1009.5 |
| 20260506120612 | 74 | 171 | 0.0 | 0.0 | 0.00 | 0.00 | 0.00 | 96 | 1009.7 |
| 20260506120109 | 74 | 171 | 0.0 | 0.0 | 0.00 | 0.00 | 0.00 | 96 | 1009.8 |
| 20260506115608 | 74 | 171 | 0.0 | 0.0 | 0.00 | 0.00 | 0.00 | 96 | 1009.6 |
| 20260506115105 | 74 | 166 | 0.0 | 0.0 | 0.00 | 0.00 | 0.00 | 96 | 1009.5 |
| 20260506114602 | 74 | 166 | 0.0 | 0.0 | 0.00 | 0.00 | 0.00 | 96 | 1009.3 |
| 20260506114100 | 74 | 166 | 0.0 | 0.0 | 0.00 | 0.00 | 0.00 | 96 | 1009.4 |
| 20260506113558 | 74 | 165 | 0.0 | 0.0 | 0.00 | 0.00 | 0.00 | 96 | 1009.4 |
| 20260506113055 | 74 | 160 | 0.0 | 0.0 | 0.00 | 0.00 | 0.00 | 96 | 1009.2 |
| 20260506112551 | 74 | 160 | 0.0 | 0.0 | 0.00 | 0.00 | 0.00 | 95 | 1009.0 |
| 20260506112049 | 74 | 160 | 0.0 | 0.0 | 0.00 | 0.00 | 0.00 | 95 | 1009.1 |
| 20260506111547 | 74 | 161 | 0.0 | 0.0 | 0.00 | 0.00 | 0.00 | 95 | 1008.9 |
| 20260506111044 | 74 | 151 | 0.0 | 0.0 | 0.00 | 0.00 | 0.00 | 95 | 1009.0 |
| 20260506110541 | 74 | 157 | 0.0 | 0.0 | 0.00 | 0.00 | 0.00 | 95 | 1009.0 |
| 20260506110039 | 74 | 149 | 0.0 | 0.0 | 0.00 | 0.00 | 0.00 | 95 | 1008.9 |
| 20260506105534 | 74 | 140 | 0.0 | 1.0 | 0.00 | 0.00 | 0.00 | 95 | 1008.9 |
| 20260506105032 | 74 | 157 | 0.0 | 0.0 | 0.00 | 0.00 | 0.00 | 95 | 1009.1 |
| 20260506104530 | 74 | 114 | 1.0 | 1.0 | 0.00 | 0.00 | 0.00 | 95 | 1008.8 |
| 20260506104028 | 74 | 147 | 0.0 | 1.0 | 0.00 | 0.00 | 0.00 | 95 | 1008.9 |
| 20260506103525 | 74 | 161 | 0.0 | 0.0 | 0.00 | 0.00 | 0.00 | 95 | 1008.9 |
| 20260506103021 | 74 | 161 | 0.0 | 0.0 | 0.00 | 0.00 | 0.00 | 95 | 1008.9 |
| 20260506102520 | 74 | 161 | 0.0 | 0.0 | 0.00 | 0.00 | 0.00 | 95 | 1008.9 |
| 20260506102017 | 73 | 176 | 0.0 | 0.0 | 0.00 | 0.00 | 0.00 | 95 | 1008.8 |
| 20260506101513 | 73 | 177 | 0.0 | 0.0 | 0.00 | 0.00 | 0.00 | 95 | 1008.7 |
| 20260506101010 | 73 | 172 | 0.0 | 0.0 | 0.00 | 0.00 | 0.00 | 95 | 1008.9 |
| 20260506100509 | 73 | 172 | 0.0 | 0.0 | 0.00 | 0.00 | 0.00 | 95 | 1008.7 |
| 20260506100007 | 73 | 173 | 0.0 | 0.0 | 0.00 | 0.00 | 0.00 | 95 | 1008.9 |
| 20260506095505 | 73 | 175 | 0.0 | 0.0 | 0.00 | 0.00 | 0.00 | 95 | 1008.6 |
| 20260506095000 | 72 | 162 | 0.0 | 0.0 | 0.00 | 0.00 | 0.00 | 95 | 1008.7 |
| 20260506094459 | 72 | 162 | 0.0 | 0.0 | 0.00 | 0.00 | 0.00 | 95 | 1008.6 |
| 20260506093956 | 73 | 162 | 0.0 | 0.0 | 0.00 | 0.00 | 0.00 | 95 | 1008.7 |
| 20260506093454 | 73 | 162 | 0.0 | 0.0 | 0.00 | 0.00 | 0.00 | 94 | 1008.6 |
| 20260506092952 | 73 | 162 | 0.0 | 0.0 | 0.00 | 0.00 | 0.00 | 94 | 1008.4 |
| 20260506092449 | 73 | 162 | 0.0 | 0.0 | 0.00 | 0.00 | 0.00 | 94 | 1008.6 |
| 20260506091946 | 74 | 161 | 0.0 | 0.0 | 0.00 | 0.00 | 0.00 | 94 | 1008.4 |
| 20260506091444 | 74 | 161 | 0.0 | 0.0 | 0.00 | 0.00 | 0.00 | 94 | 1008.4 |
| 20260506090941 | 74 | 141 | 2.0 | 2.0 | 0.00 | 0.00 | 0.00 | 94 | 1008.6 |
| 20260506090439 | 74 | 141 | 2.0 | 2.0 | 0.00 | 0.00 | 0.00 | 94 | 1008.6 |
| 20260506085935 | 74 | 141 | 2.0 | 2.0 | 0.00 | 0.00 | 0.00 | 94 | 1008.5 |
| 20260506085432 | 74 | 164 | 0.0 | 1.0 | 0.00 | 0.00 | 0.00 | 94 | 1008.3 |
| 20260506084928 | 75 | 135 | 2.0 | 2.0 | 0.00 | 0.00 | 0.00 | 94 | 1008.5 |
| 20260506084425 | 75 | 162 | 1.0 | 2.0 | 0.00 | 0.00 | 0.00 | 94 | 1008.7 |
| 20260506083921 | 75 | 152 | 2.0 | 2.0 | 0.00 | 0.00 | 0.00 | 94 | 1008.7 |
| 20260506083419 | 75 | 157 | 2.0 | 2.0 | 0.00 | 0.00 | 0.00 | 94 | 1008.6 |
| 20260506082916 | 75 | 136 | 3.0 | 4.0 | 0.00 | 0.00 | 0.00 | 94 | 1008.7 |
| 20260506082413 | 75 | 156 | 3.0 | 4.0 | 0.00 | 0.00 | 0.00 | 93 | 1008.6 |
| 20260506081908 | 75 | 115 | 3.0 | 4.0 | 0.00 | 0.00 | 0.00 | 93 | 1008.8 |
| 20260506081407 | 75 | 120 | 3.0 | 3.0 | 0.00 | 0.00 | 0.00 | 93 | 1008.9 |
| 20260506080904 | 75 | 162 | 2.0 | 3.0 | 0.00 | 0.00 | 0.00 | 93 | 1008.8 |
| 20260506080401 | 75 | 140 | 3.0 | 4.0 | 0.00 | 0.00 | 0.00 | 93 | 1008.9 |
| 20260506073345 | 76 | 145 | 6.0 | 6.0 | 0.00 | 0.00 | 0.00 | 92 | 1009.2 |
| 20260506072841 | 76 | 156 | 4.0 | 6.0 | 0.00 | 0.00 | 0.00 | 92 | 1009.6 |
| 20260506072339 | 76 | 130 | 4.0 | 4.0 | 0.00 | 0.00 | 0.00 | 92 | 1009.5 |
| 20260506071837 | 76 | 163 | 5.0 | 7.0 | 0.00 | 0.00 | 0.00 | 91 | 1009.5 |
| 20260506071335 | 77 | 149 | 4.0 | 7.0 | 0.00 | 0.00 | 0.00 | 91 | 1009.5 |
| 20260506070831 | 77 | 158 | 3.0 | 3.0 | 0.00 | 0.00 | 0.00 | 91 | 1009.5 |
| 20260506070328 | 77 | 165 | 4.0 | 4.0 | 0.00 | 0.00 | 0.00 | 91 | 1009.6 |
| 20260506062306 | 77 | 147 | 7.0 | 8.0 | 0.00 | 0.00 | 0.00 | 90 | 1009.8 |
| 20260506061801 | 77 | 174 | 6.0 | 7.0 | 0.00 | 0.00 | 0.00 | 90 | 1009.8 |
| 20260506061258 | 77 | 140 | 3.0 | 8.0 | 0.00 | 0.00 | 0.00 | 90 | 1009.8 |
| 20260506060757 | 77 | 165 | 4.0 | 6.0 | 0.00 | 0.00 | 0.00 | 90 | 1009.7 |
| 20260506060254 | 77 | 139 | 4.0 | 4.0 | 0.00 | 0.00 | 0.00 | 90 | 1009.6 |
| 20260506051226 | 77 | 143 | 5.0 | 6.0 | 0.00 | 0.00 | 0.00 | 90 | 1009.7 |
| 20260506050724 | 77 | 152 | 5.0 | 6.0 | 0.00 | 0.00 | 0.00 | 90 | 1009.6 |
| 20260506050221 | 77 | 150 | 5.0 | 7.0 | 0.00 | 0.00 | 0.00 | 90 | 1009.7 |
| 20260506044712 | 77 | 136 | 7.0 | 9.0 | 0.00 | 0.00 | 0.00 | 90 | 1009.5 |
| 20260506044209 | 77 | 162 | 7.0 | 8.0 | 0.00 | 0.00 | 0.00 | 90 | 1009.4 |
| 20260506043706 | 77 | 86 | 5.0 | 8.0 | 0.00 | 0.00 | 0.00 | 90 | 1009.3 |
| 20260506043204 | 77 | 101 | 7.0 | 10.0 | 0.00 | 0.00 | 0.00 | 90 | 1009.3 |
| 20260506042703 | 77 | 156 | 6.0 | 9.0 | 0.00 | 0.00 | 0.00 | 90 | 1009.4 |
| 20260506042200 | 77 | 168 | 6.0 | 8.0 | 0.00 | 0.00 | 0.00 | 90 | 1009.3 |
| 20260506041659 | 77 | 129 | 5.0 | 6.0 | 0.00 | 0.00 | 0.00 | 90 | 1009.5 |
| 20260506041155 | 77 | 175 | 6.0 | 7.0 | 0.00 | 0.00 | 0.00 | 90 | 1009.4 |
| 20260506040653 | 77 | 122 | 7.0 | 8.0 | 0.00 | 0.00 | 0.00 | 90 | 1009.5 |
| 20260506040149 | 77 | 131 | 5.0 | 6.0 | 0.00 | 0.00 | 0.00 | 90 | 1009.4 |
| 20260506035646 | 77 | 103 | 6.0 | 8.0 | 0.00 | 0.00 | 0.00 | 90 | 1009.3 |
| 20260506035143 | 77 | 147 | 5.0 | 10.0 | 0.00 | 0.00 | 0.00 | 90 | 1009.1 |
| 20260506034640 | 77 | 160 | 5.0 | 10.0 | 0.00 | 0.00 | 0.00 | 90 | 1009.2 |
| 20260506034137 | 77 | 151 | 8.0 | 11.0 | 0.00 | 0.00 | 0.00 | 91 | 1009.1 |
| 20260506033634 | 77 | 152 | 4.0 | 4.0 | 0.00 | 0.00 | 0.00 | 91 | 1009.3 |
| 20260506033131 | 77 | 128 | 8.0 | 9.0 | 0.00 | 0.00 | 0.00 | 91 | 1009.4 |
| 20260506032628 | 77 | 141 | 5.0 | 6.0 | 0.00 | 0.00 | 0.00 | 90 | 1009.4 |
| 20260506032125 | 77 | 143 | 5.0 | 7.0 | 0.00 | 0.00 | 0.00 | 90 | 1009.1 |
| 20260506031623 | 77 | 155 | 4.0 | 6.0 | 0.00 | 0.00 | 0.00 | 90 | 1009.3 |
| 20260506031119 | 77 | 145 | 2.0 | 3.0 | 0.00 | 0.00 | 0.00 | 90 | 1009.1 |
| 20260506030618 | 77 | 139 | 4.0 | 4.0 | 0.00 | 0.00 | 0.00 | 90 | 1009.1 |
| 20260506030115 | 77 | 138 | 5.0 | 7.0 | 0.00 | 0.00 | 0.00 | 90 | 1009.0 |
| 20260506025612 | 77 | 149 | 4.0 | 6.0 | 0.00 | 0.00 | 0.00 | 90 | 1009.0 |
| 20260506025107 | 77 | 149 | 3.0 | 4.0 | 0.00 | 0.00 | 0.00 | 90 | 1008.9 |
| 20260506024605 | 77 | 157 | 3.0 | 3.0 | 0.00 | 0.00 | 0.00 | 90 | 1008.9 |
| 20260506024101 | 77 | 159 | 3.0 | 4.0 | 0.00 | 0.00 | 0.00 | 89 | 1008.9 |
| 20260506023557 | 77 | 149 | 5.0 | 6.0 | 0.00 | 0.00 | 0.00 | 89 | 1008.9 |
| 20260506023055 | 77 | 142 | 3.0 | 6.0 | 0.00 | 0.00 | 0.00 | 89 | 1008.6 |
| 20260506022552 | 77 | 158 | 4.0 | 6.0 | 0.00 | 0.00 | 0.00 | 89 | 1008.9 |
| 20260506022049 | 77 | 155 | 3.0 | 3.0 | 0.00 | 0.00 | 0.00 | 89 | 1008.6 |
| 20260506021547 | 77 | 152 | 4.0 | 4.0 | 0.00 | 0.00 | 0.00 | 89 | 1008.7 |
| 20260506021044 | 77 | 136 | 6.0 | 7.0 | 0.00 | 0.00 | 0.00 | 89 | 1008.5 |
| 20260506020541 | 77 | 169 | 4.0 | 4.0 | 0.00 | 0.00 | 0.00 | 88 | 1008.3 |
| 20260506020039 | 77 | 163 | 6.0 | 7.0 | 0.00 | 0.00 | 0.00 | 88 | 1008.4 |
| 20260506015536 | 77 | 142 | 4.0 | 6.0 | 0.00 | 0.00 | 0.00 | 88 | 1008.2 |
| 20260506015033 | 77 | 149 | 5.0 | 8.0 | 0.00 | 0.00 | 0.00 | 88 | 1008.1 |
| 20260506014530 | 77 | 141 | 5.0 | 6.0 | 0.00 | 0.00 | 0.00 | 88 | 1007.9 |
| 20260506014026 | 77 | 155 | 5.0 | 6.0 | 0.00 | 0.00 | 0.00 | 88 | 1008.1 |
| 20260506013524 | 77 | 137 | 5.0 | 7.0 | 0.00 | 0.00 | 0.00 | 88 | 1007.9 |
| 20260506013021 | 78 | 149 | 4.0 | 4.0 | 0.00 | 0.00 | 0.00 | 88 | 1007.9 |
| 20260506012517 | 78 | 155 | 4.0 | 6.0 | 0.00 | 0.00 | 0.00 | 87 | 1007.7 |
| 20260506012014 | 78 | 149 | 8.0 | 11.0 | 0.00 | 0.00 | 0.00 | 87 | 1007.4 |
| 20260506011512 | 78 | 143 | 8.0 | 11.0 | 0.00 | 0.00 | 0.00 | 87 | 1007.6 |
| 20260506011008 | 78 | 161 | 7.0 | 9.0 | 0.00 | 0.00 | 0.00 | 87 | 1007.3 |
| 20260506010507 | 78 | 129 | 6.0 | 7.0 | 0.00 | 0.00 | 0.00 | 87 | 1007.4 |
| 20260506010003 | 78 | 154 | 6.0 | 11.0 | 0.00 | 0.00 | 0.00 | 87 | 1007.3 |
| 20260506005500 | 78 | 174 | 7.0 | 10.0 | 0.00 | 0.00 | 0.00 | 87 | 1007.2 |
| 20260506004956 | 78 | 149 | 4.0 | 7.0 | 0.00 | 0.00 | 0.00 | 86 | 1007.2 |
| 20260506004454 | 78 | 155 | 7.0 | 10.0 | 0.00 | 0.00 | 0.00 | 86 | 1007.3 |
| 20260506003950 | 78 | 164 | 7.0 | 11.0 | 0.00 | 0.00 | 0.00 | 86 | 1007.2 |
| 20260506003446 | 78 | 171 | 9.0 | 11.0 | 0.00 | 0.00 | 0.00 | 86 | 1007.3 |
| 20260506002942 | 79 | 147 | 9.0 | 11.0 | 0.00 | 0.00 | 0.00 | 85 | 1007.0 |
| 20260506002439 | 79 | 135 | 7.0 | 9.0 | 0.00 | 0.00 | 0.00 | 85 | 1007.2 |
| 20260506001934 | 79 | 178 | 8.0 | 9.0 | 0.00 | 0.00 | 0.00 | 84 | 1007.2 |
| 20260506001432 | 79 | 162 | 8.0 | 13.0 | 0.00 | 0.00 | 0.00 | 84 | 1007.2 |
| 20260506000929 | 79 | 145 | 6.0 | 8.0 | 0.00 | 0.00 | 0.00 | 84 | 1007.2 |
| 20260506000426 | 79 | 163 | 6.0 | 11.0 | 0.00 | 0.00 | 0.00 | 84 | 1007.1 |
| 20260505235923 | 79 | 133 | 9.0 | 13.0 | 0.00 | 0.00 | 0.00 | 84 | 1007.2 |
| 20260505235421 | 79 | 146 | 6.0 | 8.0 | 0.00 | 0.00 | 0.00 | 83 | 1007.1 |
| 20260505234918 | 80 | 170 | 5.0 | 13.0 | 0.00 | 0.00 | 0.00 | 82 | 1007.1 |
| 20260505234415 | 80 | 175 | 9.0 | 13.0 | 0.00 | 0.00 | 0.00 | 82 | 1007.3 |
| 20260505233912 | 80 | 134 | 6.0 | 10.0 | 0.00 | 0.00 | 0.00 | 82 | 1007.3 |
| 20260505233410 | 80 | 154 | 9.0 | 10.0 | 0.00 | 0.00 | 0.00 | 82 | 1007.2 |
| 20260505232907 | 80 | 159 | 7.0 | 14.0 | 0.00 | 0.00 | 0.00 | 81 | 1007.4 |
| 20260505232405 | 80 | 165 | 13.0 | 15.0 | 0.00 | 0.00 | 0.00 | 81 | 1007.4 |
| 20260505231901 | 80 | 153 | 5.0 | 10.0 | 0.00 | 0.00 | 0.00 | 81 | 1007.4 |
| 20260505231359 | 80 | 136 | 9.0 | 14.0 | 0.00 | 0.00 | 0.00 | 80 | 1007.4 |
| 20260505230857 | 80 | 173 | 5.0 | 10.0 | 0.00 | 0.00 | 0.00 | 81 | 1007.4 |
| 20260505230354 | 80 | 140 | 7.0 | 11.0 | 0.00 | 0.00 | 0.00 | 80 | 1007.5 |
| 20260505225850 | 81 | 137 | 8.0 | 13.0 | 0.00 | 0.00 | 0.00 | 80 | 1007.3 |
| 20260505225348 | 81 | 143 | 5.0 | 8.0 | 0.00 | 0.00 | 0.00 | 80 | 1007.3 |
| 20260505224842 | 81 | 178 | 7.0 | 9.0 | 0.00 | 0.00 | 0.00 | 79 | 1007.4 |
| 20260505224341 | 81 | 139 | 6.0 | 9.0 | 0.00 | 0.00 | 0.00 | 79 | 1007.3 |
| 20260505223838 | 80 | 162 | 6.0 | 10.0 | 0.00 | 0.00 | 0.00 | 79 | 1007.5 |
| 20260505223334 | 81 | 208 | 9.0 | 13.0 | 0.00 | 0.00 | 0.00 | 79 | 1007.8 |
| 20260505222830 | 81 | 163 | 8.0 | 11.0 | 0.00 | 0.00 | 0.00 | 79 | 1007.6 |
| 20260505222326 | 81 | 136 | 6.0 | 11.0 | 0.00 | 0.00 | 0.00 | 79 | 1007.6 |
| 20260505221824 | 81 | 169 | 9.0 | 10.0 | 0.00 | 0.00 | 0.00 | 78 | 1007.9 |
| 20260505221320 | 81 | 131 | 8.0 | 11.0 | 0.00 | 0.00 | 0.00 | 78 | 1007.6 |
| 20260505220817 | 81 | 158 | 10.0 | 15.0 | 0.00 | 0.00 | 0.00 | 78 | 1007.8 |
| 20260505220314 | 81 | 164 | 2.0 | 6.0 | 0.00 | 0.00 | 0.00 | 79 | 1007.8 |
| 20260505215813 | 81 | 151 | 3.0 | 7.0 | 0.00 | 0.00 | 0.00 | 80 | 1007.8 |
| 20260505215310 | 81 | 169 | 5.0 | 8.0 | 0.00 | 0.00 | 0.00 | 80 | 1007.9 |
| 20260505214808 | 81 | 173 | 8.0 | 10.0 | 0.00 | 0.00 | 0.00 | 79 | 1007.8 |
| 20260505214305 | 81 | 183 | 8.0 | 10.0 | 0.00 | 0.00 | 0.00 | 79 | 1007.9 |
| 20260505213802 | 81 | 162 | 6.0 | 10.0 | 0.00 | 0.00 | 0.00 | 80 | 1007.8 |
| 20260505213300 | 81 | 146 | 6.0 | 16.0 | 0.00 | 0.00 | 0.00 | 79 | 1007.9 |
| 20260505212755 | 81 | 153 | 8.0 | 11.0 | 0.00 | 0.00 | 0.00 | 79 | 1008.1 |